Location: ??????
(55.6568°N, 38.8256°E)
Time: 16:55:30
(UTC+00:00)

Daily predictions for brighter satellites

Satellite Brightness Start Highest point End
(mag) Time Altitude Azimuth Time Altitude Azimuth Time Altitude Azimuth
Cosmos 1140 Rocket 3.6 15:56:54 10° NNW 16:02:04 63° ENE 16:07:11 10° SE
Cosmos 1295 Rocket 4.5 15:57:40 10° N 16:03:52 67° ENE 16:09:58 10° SSE
Nadezhda 1 Rocket 4.0 15:58:02 10° S 16:03:59 62° E 16:10:02 10° NNE
Cosmos 1707 2.7 16:01:05 10° N 16:05:01 72° ENE 16:08:55 10° SSE
Meteor 2-5 Rocket 4.2 16:00:07 10° N 16:05:40 43° ENE 16:11:16 10° SE
IRS-1A Rocket 4.3 16:00:54 10° SSE 16:06:35 79° ENE 16:12:11 10° NNW
Cosmos 1544 3.0 16:03:11 10° S 16:06:45 60° E 16:10:21 10° NNE
Cosmos 1954 Rocket 4.2 16:03:47 10° NNW 16:08:58 57° NE 16:14:05 10° SE
Cosmos 1300 Rocket 4.0 16:04:57 10° SSW 16:09:15 69° WNW 16:13:35 10° N
COSMO-SKYMED 1 3.0 16:06:04 10° NNE 16:10:26 71° WNW 16:14:46 10° SSW
NOAA 11 4.3 16:06:22 10° SSE 16:11:53 87° WSW 16:17:25 10° NNW
RESURS DK-1 3.4 16:08:32 10° NNW 16:12:18 32° NE 16:15:59 10° ESE
Okean 1-7 Rocket 3.7 16:08:44 10° N 16:13:06 54° ENE 16:17:30 10° SSE
COSMOS 2428 4.3 16:08:13 10° NW 16:13:24 37° WSW 16:18:34 10° S
GEOS 3 Rocket 3.8 16:09:34 10° SE 16:14:41 76° SW 16:19:51 10° NW
MONITOR-E 3.8 16:13:18 10° SSE 16:16:06 77° ENE 16:18:55 10° NNW
ERBS 2.9 16:14:47 10° WNW 16:18:07 53° SSW 16:21:26 10° SE
Cosmos 1626 4.2 16:16:40 10° NNE 16:18:13 12° ENE 16:19:45 10° E
ISS -1.7 16:18:04 10° S 16:19:47 13° SE 16:21:05 11° ESE
Cosmos 2082 Rocket 4.4 16:17:50 10° WNW 16:22:00 20° NNW 16:26:12 10° NNE
ARGOS 3.6 16:17:35 10° SE 16:22:38 43° ENE 16:27:44 10° N
Cosmos 2227 Rocket 2.8 16:25:25 10° S 16:30:23 33° ESE 16:35:23 10° NE
Meteor 1-4 Rocket 2.4 16:26:54 10° NNW 16:30:30 79° ENE 16:33:59 10° SSE
Timation 2 Rocket 4.2 16:24:04 10° SW 16:30:34 81° NW 16:36:50 10° NE
Cosmos 1544 Rocket 4.4 16:31:47 10° SSE 16:35:41 30° E 16:39:36 10° NNE
Cosmos 1455 Rocket 3.7 16:31:44 10° SSE 16:35:46 35° E 16:39:52 10° NNE
SPOT 3 Rocket 3.5 16:30:48 10° SSE 16:35:54 68° ENE 16:41:03 10° NNW
Cosmos 2219 3.3 16:30:20 10° S 16:35:55 54° ESE 16:41:30 10° NE
Cosmos 1371 Rocket 4.2 16:32:24 10° S 16:37:32 51° ESE 16:42:45 10° NE
USA 186 1.8 16:34:42 10° SSE 16:38:07 72° ENE 16:41:32 10° N
CZ-2C R/B 3.8 16:33:46 11° SE 16:38:32 40° ENE 16:43:48 10° N
CZ-4 R/B 4.3 16:37:00 10° SW 16:39:58 20° W 16:42:59 10° NW
Cosmos 2297 Rocket 2.6 16:35:17 10° S 16:40:29 39° ESE 16:45:43 10° NE
SJ-6B 2.8 16:36:36 10° SSE 16:40:41 70° ENE 16:44:42 10° N
Cosmos 676 Rocket 4.1 16:38:16 10° NNW 16:43:36 84° WSW 16:48:49 10° SSE
Meteor 2-17 Rocket 4.4 16:40:09 10° NNW 16:46:17 86° ENE 16:52:21 10° SSE
Cosmos 1766 4.1 16:44:08 10° SSE 16:47:34 29° E 16:51:00 10° NNE
Cosmos 1626 Rocket 3.8 16:45:30 10° N 16:49:41 46° ENE 16:52:54 16° SE
Cosmos 2341 Rocket 4.2 16:46:06 10° NNW 16:52:22 76° W 16:58:34 10° S
In-Cosmos 22 4.4 16:47:45 10° NNW 16:53:06 72° W 16:58:33 10° S
Cosmos 1943 4.0 16:50:01 10° NNW 16:55:20 38° NE 16:58:53 19° E
Cosmos 2181 Rocket 4.0 16:50:38 10° S 16:56:49 64° E 17:03:09 10° NNE
Okean 1 Rocket 4.1 16:56:47 10° SSW 17:01:00 50° WNW 17:05:19 10° N
Lacrosse 5 rocket 2.1 16:57:59 10° SSW 17:01:06 26° SE 17:01:31 25° SE
ADEOS Rocket 3.7 16:56:15 10° NNE 17:03:21 49° E 17:10:49 10° S
Cosmos 405 Rocket 2.5 17:00:07 10° S 17:03:49 77° E 17:07:35 10° NNE
Cosmos 1461 3.7 16:59:57 10° WSW 17:03:50 49° NNW 17:07:43 10° NE
H-2A R/B 1.9 17:00:05 10° SSE 17:05:04 84° ENE 17:10:14 10° NNW
Cosmos 2366 rocket 4.0 16:58:58 10° N 17:05:23 83° E 17:11:45 10° SSE
Cosmos 864 Rocket 4.4 16:59:14 10° N 17:05:29 81° ENE 17:11:47 10° SSE
Cosmos 2218 Rocket 4.0 16:59:41 10° NNW 17:06:08 88° E 17:12:28 10° S
Cosmos 2237 Rocket 3.7 17:01:22 10° NW 17:06:33 36° WSW 17:11:42 10° S
Cosmos 1437 Rocket 2.7 17:05:50 10° NNW 17:09:40 80° W 17:12:54 14° S
Meteor 1-15 Rocket 4.3 17:04:02 10° SSW 17:09:52 89° W 17:15:50 10° NNE
Cosmos 1674 2.5 17:06:51 10° NNW 17:10:37 90° E 17:13:29 16° S
Cosmos 1602 Rocket 3.6 17:07:23 10° N 17:11:44 59° ENE 17:14:13 24° SSE
Cosmos 1821 Rocket 4.3 17:06:56 10° N 17:12:52 45° ENE 17:16:21 23° SE
Resurs 1-3 3.5 17:10:10 17° SSE 17:13:28 76° ENE 17:17:53 10° NNW
SL-8 Rocket 4.2 17:07:31 10° NNW 17:13:44 74° W 17:19:51 10° S
Meteor 1-24 Rocket 3.8 17:09:15 10° NNW 17:15:03 88° ENE 17:21:01 10° SSE
Cosmos 1850 Rocket 3.9 17:11:17 10° NNW 17:16:31 80° ENE 17:19:49 23° SSE
SL-24 R/B 4.4 17:16:09 20° SSE 17:19:25 72° ENE 17:24:44 10° NNW
BREEZE M DEB (TANK) 3.1 17:17:08 10° WSW 17:19:28 32° S 17:20:22 28° SE
USA 234 3.3 17:15:14 14° ENE 17:21:07 85° N 17:27:43 10° W
CZ-2C R/B 3.6 17:19:46 10° NNE 17:24:16 84° WNW 17:28:42 10° SSW
Cosmos 1470 4.4 17:25:51 20° ENE 17:25:51 20° ENE 17:27:52 10° NE
Resurs 01 Rocket 1.5 17:25:14 25° SSE 17:27:51 81° ENE 17:32:19 10° NNW
Cosmos 1271 Rocket 4.2 17:29:43 10° N 17:32:29 22° NE 17:32:29 22° NE
ASTEX 1 4.4 17:28:51 10° N 17:33:33 48° WNW 17:38:15 10° SSW
CZ-4C R/B 3.4 17:28:15 10° WNW 17:34:16 46° NNE 17:39:31 18° ENE
Cosmos 1805 3.1 17:31:46 13° S 17:35:15 82° E 17:39:11 10° NNE
Cosmos 1603 3.7 17:29:43 10° NNW 17:35:24 70° NE 17:37:58 33° SE
Cosmos 2056 Rocket 3.7 17:30:40 10° SSW 17:36:06 78° WNW 17:41:31 10° NNE
Cosmos 1758 4.4 17:39:31 29° ENE 17:39:31 29° ENE 17:42:12 10° NNE
Cosmos 1420 Rocket 4.0 17:33:49 10° S 17:39:02 62° ESE 17:44:20 10° NNE
CZ-2C R/B 3.5 17:34:33 10° NNE 17:39:27 30° E 17:39:35 30° E
SL-16 R/B 3.0 17:34:15 10° NW 17:39:42 47° WSW 17:44:10 15° S
ERS-1 Rocket 3.6 17:40:52 33° E 17:42:02 38° ENE 17:46:40 10° N
Meteor 2-12 Rocket 4.4 17:40:53 10° N 17:47:00 71° ENE 17:49:59 32° SSE
Cosmos 1624 Rocket 4.4 17:42:14 10° SW 17:47:24 65° WNW 17:52:37 10° NNE
SPOT 5 3.7 17:46:59 32° E 17:47:51 34° ENE 17:52:27 10° N
Cosmos 1741 Rocket 4.3 17:42:37 10° NNW 17:47:56 67° WSW 17:50:48 27° S
RESURS DK-1 3.0 17:46:30 10° NW 17:50:33 51° WSW 17:51:53 35° S
MetOp-B 4.0 17:49:32 36° SSE 17:51:46 77° ENE 17:57:09 10° NNW
SL-08 RB Rocket 4.3 17:48:51 20° S 17:52:00 57° W 17:56:38 10° NNW
Cosmos 1953 4.1 17:54:36 20° NE 17:54:36 20° NE 17:56:18 10° NNE
Cosmos 1626 1.9 17:50:25 10° N 17:54:10 82° ENE 17:54:22 77° SE
ISS -1.7 17:52:48 10° SW 17:53:59 18° SW 17:53:59 18° SW
Spot 2 Rocket 3.4 17:54:27 39° SSE 17:56:24 88° ENE 18:01:29 10° NNW
Cosmos 2084 Rocket 3.4 17:52:16 10° SW 17:56:45 84° SE 17:59:03 28° NE
Cosmos 2082 3.6 17:53:34 10° SSW 17:59:18 80° ESE 18:05:03 10° NE
Meteor 1-22 Rocket 4.4 17:54:40 10° SSW 18:00:47 84° WNW 18:06:56 10° NNE
ARGOS 4.2 17:57:53 10° SSW 18:02:58 42° W 18:08:06 10° NNW
Terra 2.7 18:03:26 32° ENE 18:03:38 32° ENE 18:07:51 10° N
SPOT 1/Viking Rocket 3.7 18:03:46 48° ESE 18:04:42 56° ENE 18:09:46 10° N
Cosmos 1733 3.1 18:04:14 66° SSW 18:04:43 81° WNW 18:08:34 10° N
Cosmos 2082 Rocket 4.4 18:04:23 10° NNW 18:08:18 18° N 18:12:14 10° NE
Cosmos 1934 Rocket 3.9 18:04:22 10° N 18:10:31 70° ENE 18:12:23 46° SE
Cosmos 2228 4.4 18:13:53 27° NE 18:13:53 27° NE 18:16:19 10° NNE
SL-14 R/B 3.9 18:08:52 10° NNW 18:12:47 53° W 18:13:32 45° SW
DMSP B5D2-2 4.0 18:08:12 10° NNE 18:13:33 73° ESE 18:15:09 45° S
IGS 5A 3.8 18:13:57 52° NE 18:13:57 52° NE 18:17:42 10° N
Cosmos 2227 Rocket 2.6 18:08:32 10° SW 18:14:10 64° NW 18:19:50 10° NNE
Cosmos 1242 Rocket 4.5 18:12:17 10° N 18:14:01 21° NNE 18:14:01 21° NNE
CZ-2C R/B 4.0 18:14:50 20° SSW 18:18:21 47° W 18:23:49 10° NNW
CARTOSAT-1 4.1 18:18:58 45° NE 18:18:58 45° NE 18:22:44 10° N
Cosmos 968 Rocket 4.2 18:14:38 10° NNW 18:19:34 39° NE 18:20:09 38° ENE
Cosmos 2219 4.4 18:14:48 10° WSW 18:20:16 43° NW 18:25:46 10° NNE
Cosmos 1953 Rocket 3.5 18:15:53 10° N 18:20:25 78° ENE 18:20:25 78° ENE
Cosmos 2297 Rocket 2.9 18:18:53 10° SW 18:24:26 55° NW 18:30:01 10° NNE
Cosmos 1452 Rocket 3.7 18:25:00 10° SW 18:30:15 73° WNW 18:35:32 10° NNE
Cosmos 2263 Rocket 3.8 18:36:49 21° ENE 18:36:49 21° ENE 18:38:57 10° NE
Cosmos 1825 Rocket 3.9 18:30:34 10° NNW 18:34:50 59° W 18:35:03 58° WSW
Cosmos 1241 Rocket 4.3 18:29:50 10° NW 18:36:12 88° SW 18:37:22 62° SE
USA 245 4.4 18:36:42 47° S 18:38:23 70° WSW 18:43:43 10° NNW
Cosmos 1943 3.3 18:34:07 10° NW 18:39:47 65° WSW 18:40:42 56° SSW
Lacrosse 5 rocket 3.3 18:36:06 10° WSW 18:37:12 19° WSW 18:37:12 19° WSW
COSMOS 2406 4.5 18:35:37 10° NNW 18:40:44 31° NNE 18:42:11 27° ENE
Cosmos 1833 Rocket 4.5 18:38:12 10° NNW 18:42:36 23° NNE 18:44:52 18° NE
H-2A R/B 4.3 18:41:41 10° SW 18:45:13 19° W 18:48:49 10° NW
Cosmos 1758 Rocket 4.4 18:41:47 10° NNW 18:45:54 44° W 18:46:12 43° WSW
Nadezhda 3 Rocket 4.2 18:45:33 28° SSW 18:48:55 69° WNW 18:55:11 10° N
ADEOS Rocket 4.2 18:41:55 10° NNE 18:48:56 54° WNW 18:56:22 10° SW
Cosmos 2285 Rocket 3.9 18:43:09 10° NNW 18:49:39 76° ENE 18:50:32 65° ESE
Cosmos 1606 Rocket 4.2 18:55:00 51° N 18:55:00 51° N 18:58:24 10° N
Cosmos 1605 Rocket 3.9 18:49:28 10° NNW 18:55:55 87° W 18:56:54 67° S
NOSS 2-1 (C) 4.4 18:51:51 10° NW 18:56:20 53° NNE 18:56:45 52° NE
NOSS 2-1 (D) 4.4 18:55:03 10° NW 18:59:33 55° NNE 18:59:51 54° NE
Cosmos 1470 4.1 19:01:11 40° NW 19:01:11 40° NW 19:04:21 10° N
Cosmos 1339 Rocket 4.4 19:00:55 64° ENE 19:00:55 64° ENE 19:06:37 10° NNE
USA 234 3.2 19:02:35 56° E 19:04:09 84° NNE 19:10:45 10° WNW
Resurs 01 Rocket 4.1 19:02:49 13° WSW 19:04:54 17° W 19:07:51 10° NW
Cosmos 1271 Rocket 4.4 19:05:20 10° NNW 19:07:38 31° NW 19:07:38 31° NW
Landsat 7 4.5 19:09:44 49° W 19:09:44 49° W 19:14:12 10° NNW
Cosmos 2100 Rocket 4.1 19:07:52 10° N 19:14:08 62° ENE 19:14:08 62° ENE
Cosmos 1153 Rocket 4.3 19:09:54 10° NNW 19:16:15 89° E 19:16:26 85° SSE
Meteor 1-11 4.2 19:12:44 10° NNW 19:18:09 76° WNW 19:18:09 76° WNW
CZ-2C R/B 3.1 19:14:36 10° N 19:20:06 62° WNW 19:21:05 53° WSW
ERS-1 Rocket 3.7 19:20:52 44° W 19:20:52 44° W 19:25:38 10° NNW
SJ 16-02 4.2 19:21:04 10° NNE 19:21:28 10° NNE 19:21:49 10° NNE
CZ-4C R/B 2.7 19:16:58 10° NW 19:23:41 79° NE 19:24:41 68° E
SPOT 5 3.6 19:26:13 48° W 19:26:13 48° W 19:30:45 10° NNW
Cosmos 1354 Rocket 4.3 19:20:59 10° NNW 19:25:25 63° NNW 19:25:25 63° NNW
Cosmos 1110 Rocket 4.4 19:28:55 63° NNW 19:28:55 63° NNW 19:33:39 10° NNE
Cosmos 1953 4.2 19:30:17 30° NNW 19:30:17 30° NNW 19:32:53 10° N
Cosmos 2173 Rocket 4.0 19:28:24 10° N 19:34:33 75° NE 19:34:33 75° NE
MOS 1 Rocket 4.1 19:31:49 10° NNE 19:35:44 51° N 19:35:44 51° N
Terra 2.9 19:42:19 41° WNW 19:42:19 41° WNW 19:45:53 10° NNW
Meteor 1-16 Rocket 4.5 19:41:27 67° WNW 19:41:27 67° WNW 19:47:01 10° N
Cosmos 1459 Rocket 4.0 19:37:11 10° N 19:42:41 74° N 19:42:41 74° N
Cosmos 2082 Rocket 3.4 19:48:59 10° NNW 19:54:11 34° NE 19:54:33 33° NE
Cosmos 2227 Rocket 4.3 19:54:45 10° W 19:59:20 24° NNW 20:03:55 10° NNE
Cosmos 1802 Rocket 4.1 19:56:03 10° NNW 20:01:48 74° NNW 20:01:48 74° NNW
Thor Agena Rocket 4.3 20:03:42 10° NNE 20:08:00 50° NNW 20:08:00 50° NNW
Cosmos 2297 Rocket 4.5 20:05:21 10° WNW 20:09:44 22° NNW 20:14:08 10° NNE
Cosmos 2016 Rocket 4.2 20:05:54 10° NNW 20:11:07 66° NNW 20:11:07 66° NNW
Cosmos 2263 Rocket 2.9 20:18:29 52° N 20:18:29 52° N 20:23:12 10° NNE
Cosmos 2061 Rocket 4.2 20:12:36 10° NNW 20:18:17 67° NW 20:18:17 67° NW
ATLAS CENTAUR R/B 4.2 20:25:16 14° NE 20:25:16 14° NE 20:26:00 10° NE
COSMOS 2406 3.9 20:19:57 10° NW 20:24:13 51° NW 20:24:13 51° NW
Cosmos 1833 Rocket 3.5 20:22:10 10° NNW 20:26:32 47° N 20:26:32 47° N
Cosmos 2278 Rocket 4.4 20:44:43 16° ENE 20:44:43 16° ENE 20:46:10 10° NE
Mayak 1.2 20:42:14 10° N 20:43:36 20° N 20:43:36 20° N
USA 234 4.1 20:49:56 38° W 20:49:56 38° W 20:53:57 10° WNW
SJ 16-02 3.6 20:57:31 10° NNW 20:59:35 22° N 20:59:35 22° N
Cosmos 2123 Rocket 4.4 21:06:02 60° NNW 21:06:02 60° NNW 21:11:17 10° N
CZ-4C R/B 3.9 21:05:35 10° WNW 21:09:50 34° W 21:09:50 34° W
SL-16 R/B 4.0 21:12:19 26° ENE 21:13:46 29° NE 21:18:59 10° N
Cosmos 1607 4.5 21:26:29 54° N 21:26:29 54° N 21:31:35 10° NE
Cosmos 1844 Rocket 3.6 21:28:12 45° NNE 21:28:12 45° NNE 21:32:09 10° NNE
Cosmos 2082 Rocket 3.4 21:33:05 10° NW 21:36:22 36° NW 21:36:22 36° NW
USA 267 4.0 21:46:57 10° ENE 21:51:16 43° E 21:51:16 43° E
ATLAS CENTAUR R/B 3.5 22:01:28 28° N 22:01:28 28° N 22:05:16 10° NE
Meteor 2-10 Rocket 4.5 22:03:49 48° N 22:03:49 48° N 22:07:53 10° NNE
Cosmos 2263 Rocket 4.2 22:00:08 18° WNW 22:02:40 23° NNW 22:07:10 10° NNE
Tsikada Rocket 4.4 22:17:24 56° ENE 22:17:24 56° ENE 22:22:44 10° NNE
Mayak 1.6 22:19:37 10° NNW 22:20:10 11° NW 22:20:10 11° NW
CZ-2D R/B 3.7 22:18:33 10° NE 22:22:28 27° E 22:22:28 27° E
Cosmos 2278 Rocket 2.8 22:26:34 55° NNE 22:26:34 55° NNE 22:30:58 10° NNE
Cosmos 1634 Rocket 4.2 22:19:51 10° N 22:25:47 69° NE 22:25:47 69° NE
Cosmos 1943 Rocket 4.1 22:31:03 19° E 22:31:03 19° E 22:34:33 10° ENE
CZ-4B R/B 4.4 22:34:08 10° NNE 22:37:50 47° NE 22:37:50 47° NE
ATLAS 5 CENTAUR R/B 3.0 22:41:43 40° NE 22:41:43 40° NE 22:45:11 10° NE
SJ 16-02 4.0 22:36:02 10° NW 22:36:32 13° NW 22:36:32 13° NW
Cosmos 1763 Rocket 4.2 22:48:18 51° NE 22:48:18 51° NE 22:52:25 10° NNE
Gbstr 26 Del rocket 4.5 22:52:32 64° SSE 22:52:32 64° SSE 22:59:44 10° ESE
ADEOS II 4.1 22:49:26 10° NE 22:53:10 19° E 22:54:39 17° ESE
SL-16 R/B 2.5 22:57:25 74° NW 22:57:25 74° NW 23:03:09 10° NNW
Cosmos 468 Rocket 4.5 23:02:20 59° NNE 23:02:20 59° NNE 23:06:41 10° NNE
ATLAS 3B R/B 3.9 23:02:48 27° SE 23:03:28 27° ESE 23:08:53 10° ENE
NOSS 3-2 (A) 4.0 23:05:20 45° ESE 23:05:20 45° ESE 23:11:29 10° NE
Cosmos 1151 Rocket 4.4 23:07:44 36° NNE 23:07:44 36° NNE 23:10:19 10° NNE
CZ-4B R/B 4.1 23:09:04 20° NE 23:09:04 20° NE 23:11:06 10° N
ARIANE 5 R/B 4.3 23:05:10 10° NE 23:09:17 24° E 23:10:30 22° ESE
H-2A R/B 3.9 23:12:23 24° NNW 23:12:23 24° NNW 23:14:06 10° NNW
NOSS 3-2 (C) 4.4 23:11:04 36° SE 23:11:17 36° ESE 23:17:18 10° ENE
Cosmos 1844 Rocket 4.3 23:09:51 22° NW 23:11:23 25° NNW 23:16:03 10° NNE
Resurs 1-4 Rocket 2.4 23:09:08 10° NNE 23:14:07 62° E 23:14:07 62° E
MOS 1-B Rocket 3.9 23:14:18 10° NNE 23:20:52 75° ESE 23:21:21 71° SE
Cosmos 1125 Rocket 4.2 23:18:54 10° NNW 23:22:35 45° NW 23:22:35 45° NW
Cosmos 1814 Rocket 4.1 23:26:46 72° NE 23:26:46 72° NE 23:31:31 10° NNE
Meteor 1-25 Rocket 4.1 23:22:06 10° NNW 23:27:51 85° ENE 23:27:58 84° ESE
Cosmos 2227 Rocket 4.3 23:26:54 10° NNW 23:31:35 25° NNE 23:36:15 10° E
Cosmos 1782 4.5 23:33:42 29° E 23:33:42 29° E 23:36:58 10° NNE
Lacrosse 5 3.1 23:37:34 30° ESE 23:37:34 30° ESE 23:40:06 10° ESE
USA 267 3.2 23:30:09 10° ENE 23:36:44 83° N 23:38:35 51° W
Landsat 5 4.5 23:38:43 43° N 23:38:43 43° N 23:41:41 10° NNW
Cosmos 2084 4.1 23:39:07 55° NE 23:39:07 55° NE 23:42:36 10° NE
Cosmos 2297 3.6 23:38:08 72° WNW 23:38:15 72° NW 23:44:00 10° NNE
SME Rocket 3.9 23:32:11 10° NNE 23:39:21 68° ESE 23:40:08 60° SSE
CENTAUR R/B 3.3 23:39:20 36° SSE 23:40:44 41° ESE 23:47:20 10° NE
Cosmos 2228 Rocket 3.5 23:41:40 61° NNE 23:41:40 61° NNE 23:45:24 10° NNE
ATLAS CENTAUR R/B 3.3 23:37:41 13° NW 23:41:17 32° NNE 23:45:22 10° E
Cosmos 841 Rocket 3.4 23:41:48 78° NNW 23:41:48 78° NNW 23:46:52 10° NNE
Cosmos 2297 Rocket 4.2 23:37:06 10° NNW 23:41:56 28° NNE 23:46:45 10° E
Cosmos 2369 Rocket 2.7 23:41:36 46° SE 23:42:25 49° ESE 23:47:52 10° NE
CBERS-1 4.0 23:38:08 10° NNE 23:43:17 74° ESE 23:43:29 73° SE
AQUA 3.8 23:41:05 10° NNE 23:45:36 79° NE 23:45:36 79° NE
Timation 2 Rocket 3.9 23:40:07 10° NW 23:46:15 79° NE 23:52:14 10° SE
Cosmos 1606 3.7 23:48:59 45° NNE 23:48:59 45° NNE 23:51:47 10° NNE
Cosmos 1833 4.0 23:47:51 10° NW 23:53:29 75° WSW 23:53:34 75° SW
